2019�N�x�@��C������Ԃɂ�鑪�茋��,,,,,,,,,,,,,,,
,,,,,,,,,,,,,,,
�P�@����n�_,,,,,,,,,,,,,,,
���C�s�V��i���C�s�V�󒬂P�|�P),,,,,,,,,,,,,,,
,,,,,,,,,,,,,,,
�Q�@���Ԓl�i�m��l�j��2019�N10��2���`2019�N10��24��,,,,,,,,,,,,,,,
,,,,,,,,,,,,,,,
,�N,��,��,��,SO2,SPM,Ox,CO,NO,NO2,PM2.5,���x,���x,����,����
,,,,,ppm,mg/m3,ppm,ppm,ppm,ppm,��g/m3,��,%,�ő�,m/s
H03,2019,10,2,1,�Z����,0.024,0.043,�Z����,�Z����,�Z����,17,24.3,72.1,ENE,0.6
H03,2019,10,2,2,0.001,0.023,0.041,0.2,0.001,0.011,18,24.3,69.1,ESE,0.7
H03,2019,10,2,3,0.001,0.021,0.039,0.2,0.001,0.011,16,24,69.6,ESE,0.6
H03,2019,10,2,4,0.001,0.021,0.035,0.2,0,0.012,15,23.9,70.8,E,0.5
H03,2019,10,2,5,0.001,0.019,0.031,0.2,0.001,0.012,13,23.6,70.3,NE,0.3
H03,2019,10,2,6,0.001,0.021,0.02,0.2,0.001,0.024,14,23.9,69.7,E,0.5
H03,2019,10,2,7,0.001,0.023,0.021,0.2,0.003,0.021,15,24.2,67.4,E,0.6
H03,2019,10,2,8,0.001,0.022,0.019,0.3,0.007,0.028,18,25.4,61.7,NE,0.8
H03,2019,10,2,9,0.001,0.022,0.027,0.3,0.011,0.026,17,26.9,57.4,ESE,1
H03,2019,10,2,10,0.001,0.024,0.039,0.2,0.005,0.02,17,27.8,59.3,S,1.5
H03,2019,10,2,11,0.002,0.025,0.047,0.2,0.003,0.014,14,27.9,62.6,SSE,2.2
H03,2019,10,2,12,0.002,0.024,0.043,0.2,0.006,0.019,15,27.5,65.5,S,1.2
H03,2019,10,2,13,0.002,0.019,0.051,0.2,0.014,0.015,14,28.7,53.8,SSE,2.5
H03,2019,10,2,14,0.001,0.02,0.056,0.2,0.004,0.011,12,28.2,55.2,SSE,2.4
H03,2019,10,2,15,0.001,0.02,0.056,0.2,0.002,0.012,11,28.2,58.6,S,2.3
H03,2019,10,2,16,0.002,0.021,0.057,0.2,0.002,0.014,13,27.3,62.7,S,1.7
H03,2019,10,2,17,0.002,0.02,0.047,0.2,0.011,0.024,16,26.8,64.3,S,1.8
H03,2019,10,2,18,0.002,0.024,0.042,0.2,0.011,0.026,16,26.5,66.8,SSE,1.2
H03,2019,10,2,19,0.002,0.019,0.038,0.2,0.011,0.03,13,26.2,66.6,SSE,1.4
H03,2019,10,2,20,0.002,0.018,0.033,0.2,0.006,0.021,13,25.8,69.4,SSE,1.2
H03,2019,10,2,21,0.001,0.018,0.034,0.2,0.001,0.018,11,25.8,70,SE,1.2
H03,2019,10,2,22,0.001,0.017,0.033,0.2,0,0.017,12,25.2,70.5,E,0.8
H03,2019,10,2,23,0.001,0.021,0.031,0.2,0,0.019,13,24.8,71.5,ESE,0.7
H03,2019,10,2,24,0.001,0.021,0.028,0.2,0.004,0.022,13,25.2,71.4,SE,1.2
H03,2019,10,3,1,0.001,0.02,0.029,0.2,0.018,0.023,14,24.6,76.3,ESE,1
H03,2019,10,3,2,0.001,0.025,0.038,0.2,0.007,0.016,15,24.5,76.6,ESE,0.9
H03,2019,10,3,3,0.001,0.022,0.037,0.2,0.012,0.016,16,24.3,77.8,ESE,1
H03,2019,10,3,4,0.001,0.023,0.034,0.2,0.014,0.029,15,24.3,76.8,SE,1.2
H03,2019,10,3,5,0.001,0.021,0.032,0.2,0.023,0.023,13,24.1,76.2,SE,1.4
H03,2019,10,3,6,0.001,0.021,0.036,0.2,0.014,0.023,14,24.3,73.3,ESE,1.8
H03,2019,10,3,7,0.002,0.02,0.033,0.2,0.041,0.025,14,25,70.2,ESE,2.5
H03,2019,10,3,8,0.001,0.019,0.038,0.2,0.013,0.02,14,25.5,68.1,ESE,2
H03,2019,10,3,9,0.001,0.024,0.04,0.2,0.008,0.015,17,27.8,57.6,SE,3.6
H03,2019,10,3,10,0.001,0.024,0.046,0.2,0.003,0.012,14,27.8,60.4,SE,3.9
H03,2019,10,3,11,0.001,0.026,0.043,0.2,0.008,0.016,14,25.7,74.6,SE,2.7
H03,2019,10,3,12,0.001,0.021,0.048,0.2,0.004,0.012,12,27.9,57.7,SSE,2.9
H03,2019,10,3,13,0.001,0.022,0.049,0.2,0.004,0.009,14,24.3,83.6,SSE,4
H03,2019,10,3,14,0.001,0.027,0.046,0.2,0.003,0.011,14,26.5,70.1,SE,4.3
H03,2019,10,3,15,0,0.029,0.042,0.2,0.003,0.014,15,26.9,66.5,SSE,3.4
H03,2019,10,3,16,0.001,0.026,0.04,0.2,0.009,0.015,14,26.1,70.1,SSE,3.5
H03,2019,10,3,17,0.001,0.028,0.038,0.2,0.009,0.019,16,25.3,78.5,SSE,2.4
H03,2019,10,3,18,0.001,0.025,0.037,0.2,0.009,0.023,14,24.9,80,SE,2
H03,2019,10,3,19,0.001,0.024,0.033,0.2,0.012,0.024,13,25.5,74.1,SSE,3
H03,2019,10,3,20,0.001,0.02,0.041,0.2,0.004,0.013,13,25.7,73,SSE,3
H03,2019,10,3,21,0.001,0.022,0.044,0.2,0,0.008,12,25.9,72.6,SSE,3.3
H03,2019,10,3,22,0.001,0.016,0.047,0.2,0,0.007,9,23.4,66.1,SSE,2.7
H03,2019,10,3,23,0.001,0.018,0.045,0.2,0,0.01,12,21.5,87.6,S,1.5
H03,2019,10,3,24,0,0.018,0.042,0.2,0,0.008,12,21.3,95.6,ESE,1.3
H03,2019,10,4,1,0.001,0.024,0.033,0.3,0.001,0.016,14,22.7,96.3,SE,1
H03,2019,10,4,2,0.001,0.023,0.038,0.2,0.002,0.01,13,23.4,92.2,SSE,3.8
H03,2019,10,4,3,0.001,0.026,0.034,0.2,0.003,0.011,12,24.5,89,S,2
H03,2019,10,4,4,0.001,0.029,0.019,0.5,0.012,0.024,12,23.4,93.8,SSW,1.9
H03,2019,10,4,5,0.002,0.016,0.016,0.2,0.011,0.024,8,22.5,91.5,SSW,2.1
H03,2019,10,4,6,0.002,0.018,0.007,0.6,0.038,0.035,11,24,87.2,SW,1.6
H03,2019,10,4,7,0.006,0.022,0.007,0.9,0.055,0.037,13,24.2,83.3,W,2.5
H03,2019,10,4,8,0.002,0.013,0.014,0.3,0.03,0.027,7,25.7,65,NW,0.8
H03,2019,10,4,9,0.002,0.008,0.02,0.3,0.031,0.025,8,27,55,WNW,1.3
H03,2019,10,4,10,0.013,0.017,0.015,1.2,0.059,0.039,12,28.9,50.8,WSW,2.7
H03,2019,10,4,11,0.002,0.011,0.028,0.3,0.034,0.03,7,29.2,44.7,W,4
H03,2019,10,4,12,0.001,0.009,0.032,0.2,0.022,0.023,5,27.6,52.4,WNW,2.4
H03,2019,10,4,13,0.001,0.009,0.036,0.2,0.014,0.017,6,28.7,47.6,W,4
H03,2019,10,4,14,0.001,0.009,0.036,0.2,0.015,0.018,6,28.4,47.6,WNW,2.9
H03,2019,10,4,15,0.002,0.009,0.032,0.2,0.018,0.027,6,26.7,52.6,WNW,4.2
H03,2019,10,4,16,0.002,0.008,0.035,0.2,0.009,0.016,5,25.9,56.3,WNW,4.6
H03,2019,10,4,17,0.004,0.01,0.029,0.2,0.012,0.017,8,24.5,60.7,WNW,4.9
H03,2019,10,4,18,0.001,0.01,0.035,0.2,0.005,0.011,6,23.7,61.4,WNW,5.3
H03,2019,10,4,19,0.001,0.008,0.036,0.2,0.005,0.009,5,23.4,63.8,WNW,4.7
H03,2019,10,4,20,0.001,0.005,0.037,0.2,0.002,0.006,3,22.8,66.3,WNW,4.6
H03,2019,10,4,21,0,0.004,0.036,0.2,0.002,0.006,4,22.7,68.5,WNW,3.2
H03,2019,10,4,22,0.001,0.003,0.037,0.2,0.001,0.005,2,22.5,70.1,WNW,4.2
H03,2019,10,4,23,0,0.003,0.036,0.2,0.001,0.004,4,22.2,70.7,WNW,3.2
H03,2019,10,4,24,0.001,0.003,0.036,0.2,0.001,0.005,3,22.2,68.7,WNW,3.9
H03,2019,10,5,1,0,0.004,0.039,0.2,0.001,0.004,4,22.1,66.2,WNW,4.2
H03,2019,10,5,2,0.001,0.005,0.04,0.1,0.001,0.004,5,22.1,66.1,WNW,3.6
H03,2019,10,5,3,0.001,0.004,0.04,0.1,0.001,0.003,3,21.9,68.4,WNW,1.6
H03,2019,10,5,4,0.001,0.005,0.039,0.1,0.001,0.004,4,21.5,71.7,WNW,2
H03,2019,10,5,5,0.001,0.006,0.034,0.2,0.002,0.008,5,21,74,NNE,1.3
H03,2019,10,5,6,0.002,0.009,0.027,0.2,0.002,0.014,6,20.4,78.2,NNE,1.5
H03,2019,10,5,7,0.002,0.008,0.023,0.2,0.006,0.017,6,21.2,74.3,NNE,1.9
H03,2019,10,5,8,0.002,0.008,0.024,0.2,0.008,0.018,7,23.6,57.7,NNW,1.4
H03,2019,10,5,9,0.001,0.006,0.034,0.2,0.012,0.013,5,25.7,46.5,NW,2.5
H03,2019,10,5,10,0.001,0.009,0.039,0.2,0.009,0.013,7,27.3,45.6,NW,2.7
H03,2019,10,5,11,0.001,0.012,0.04,0.2,0.01,0.015,6,27.3,42.5,NW,2.5
H03,2019,10,5,12,0.001,0.012,0.042,0.2,0.01,0.009,9,27.9,41.9,NNW,1.5
H03,2019,10,5,13,0.001,0.012,0.047,0.2,0.005,0.009,7,28.7,42.6,NNW,1.8
H03,2019,10,5,14,0.001,0.011,0.047,0.2,0.007,0.013,9,29.1,42.2,W,2.4
H03,2019,10,5,15,0.001,0.017,0.046,0.2,0.011,0.011,12,28.9,42,WNW,2
H03,2019,10,5,16,0.001,0.017,0.048,0.2,0.006,0.011,12,28.4,45.2,WNW,2.1
H03,2019,10,5,17,0.002,0.018,0.039,0.3,0.007,0.018,11,27.2,50.4,WNW,2.3
H03,2019,10,5,18,0.002,0.015,0.037,0.2,0.004,0.016,13,25.1,59.2,W,2.2
H03,2019,10,5,19,0.001,0.017,0.038,0.2,0.002,0.01,14,24.3,60.2,WNW,2.4
H03,2019,10,5,20,0.001,0.016,0.043,0.2,0.001,0.005,9,23.6,59.4,WNW,2
H03,2019,10,5,21,0.001,0.013,0.043,0.2,0.001,0.005,10,23,60.1,WNW,1.2
H03,2019,10,5,22,0.001,0.013,0.042,0.2,0.001,0.005,11,22.7,61.6,NW,0.9
H03,2019,10,5,23,0.001,0.013,0.041,0.2,0,0.005,10,22.5,61.8,WNW,1.2
H03,2019,10,5,24,0.002,0.014,0.036,0.2,0.001,0.01,11,22.8,60,NNE,1.4
H03,2019,10,6,1,0.001,0.016,0.038,0.2,0,0.008,14,22.3,62,NNE,1.3
H03,2019,10,6,2,0.001,0.012,0.038,0.2,0,0.006,11,22.2,64.7,NNE,1.4
H03,2019,10,6,3,0.001,0.013,0.038,0.2,0,0.005,10,22.2,66,NNE,1.7
H03,2019,10,6,4,0.001,0.016,0.037,0.2,0,0.006,10,22.1,67.1,NNE,1.8
H03,2019,10,6,5,0.001,0.02,0.038,0.2,0.001,0.006,15,21.5,69.4,N,1.1
H03,2019,10,6,6,0.002,0.017,0.036,0.2,0.001,0.009,11,21.5,69.9,WNW,1.4
H03,2019,10,6,7,0.002,0.017,0.036,0.2,0.001,0.009,11,22.2,67.8,WNW,1.9
H03,2019,10,6,8,0.001,0.015,0.039,0.2,0.003,0.006,10,24,55.6,NW,2
H03,2019,10,6,9,0.001,0.01,0.041,0.2,0.002,0.006,11,25.7,47.4,N,2
H03,2019,10,6,10,0.001,0.011,0.043,0.2,0.002,0.006,7,26.4,45,NNE,3
H03,2019,10,6,11,0.001,0.009,0.044,0.2,0.002,0.005,9,27.5,45,WNW,2.8
H03,2019,10,6,12,0.001,0.009,0.043,0.2,0.002,0.005,7,28.2,43.3,WNW,3.3
H03,2019,10,6,13,0.001,0.009,0.041,0.2,0.002,0.004,4,28.7,43.1,WNW,2.9
H03,2019,10,6,14,0.001,0.006,0.04,0.2,0.002,0.002,3,28.3,39.9,WNW,3.5
H03,2019,10,6,15,0.001,0.006,0.043,0.2,0.001,0.003,5,27.9,38,WNW,4.3
H03,2019,10,6,16,0.001,0.006,0.042,0.2,0.001,0.003,6,26.3,44,WNW,4.4
H03,2019,10,6,17,0.001,0.003,0.041,0.2,0.001,0.003,7,25.1,47,WNW,4.5
H03,2019,10,6,18,0,0.007,0.04,0.2,0.001,0.004,7,23.8,47.8,WNW,3.1
H03,2019,10,6,19,0.001,0.007,0.04,0.2,0.001,0.004,8,22.8,49.8,WNW,3.7
H03,2019,10,6,20,0.001,0.009,0.04,0.2,0,0.003,6,22.5,51.1,WNW,3.4
H03,2019,10,6,21,0.001,0.006,0.039,0.2,0.001,0.003,4,21.8,52.7,WNW,2.3
H03,2019,10,6,22,0.001,0.005,0.037,0.2,0.001,0.004,5,21.5,55.3,N,1.4
H03,2019,10,6,23,0.001,0.005,0.031,0.2,0.001,0.008,5,21,56.4,NNE,1.4
H03,2019,10,6,24,0.001,0.005,0.031,0.2,0.001,0.007,5,20.6,59.4,NNE,1.1
H03,2019,10,7,1,0.001,0.008,0.024,0.2,0.001,0.011,8,19.7,66.6,NE,0.3
H03,2019,10,7,2,0.001,0.008,0.022,0.2,0.004,0.011,6,19.7,66.8,E,0.3
H03,2019,10,7,3,0,0.006,0.016,0.2,0.004,0.014,4,19.4,68.6,NE,0.4
H03,2019,10,7,4,0.001,0.009,0.018,0.2,0.003,0.018,4,20.3,61.9,N,0.3
H03,2019,10,7,5,0.001,0.008,0.016,0.2,0.005,0.02,4,20,63.6,CALM,0.2
H03,2019,10,7,6,0.001,0.01,0.011,0.2,0.005,0.024,6,20.4,63.8,NNE,1.2
H03,2019,10,7,7,0.001,0.011,0.005,0.3,0.053,0.027,10,20.1,66.6,NW,1
H03,2019,10,7,8,0.002,0.012,0.007,0.3,0.037,0.029,8,20.6,65.3,NNE,0.8
H03,2019,10,7,9,0.002,0.014,0.012,0.3,0.022,0.023,11,21.8,60.1,NNE,1.2
H03,2019,10,7,10,0.002,0.014,0.013,0.3,0.045,0.025,11,23.3,53.1,WNW,1.8
H03,2019,10,7,11,0.004,0.015,0.015,0.4,0.051,0.031,12,23.4,53.6,NW,1
H03,2019,10,7,12,0.004,0.017,0.02,0.4,0.033,0.031,11,24.5,55.4,WNW,1.7
H03,2019,10,7,13,0.003,0.014,0.022,0.4,0.026,0.024,12,23.4,57.5,WNW,2.2
H03,2019,10,7,14,0.003,0.013,0.024,0.3,0.023,0.026,12,23.3,57.7,WNW,1.8
H03,2019,10,7,15,0.002,0.013,0.026,0.3,0.019,0.024,13,23.6,57,N,1.3
H03,2019,10,7,16,0.002,0.015,0.022,0.3,0.022,0.029,9,22.8,60.6,WNW,1.3
H03,2019,10,7,17,0.002,0.015,0.023,0.3,0.009,0.028,14,20,85.1,ESE,0.8
H03,2019,10,7,18,0.001,0.014,0.021,0.3,0.007,0.028,10,19.7,88.3,E,0.7
H03,2019,10,7,19,0.001,0.012,0.024,0.4,0.004,0.017,9,20,90.3,ESE,0.5
H03,2019,10,7,20,0.001,0.013,0.02,0.3,0.002,0.021,9,19.8,88.1,NE,0.8
H03,2019,10,7,21,0,0.013,0.019,0.3,0.002,0.022,10,20.3,88.3,NNW,0.5
H03,2019,10,7,22,0.001,0.014,0.021,0.3,0.002,0.02,12,20.3,85.9,NW,0.8
H03,2019,10,7,23,0.001,0.014,0.019,0.3,0.002,0.021,10,20.4,85,N,0.6
H03,2019,10,7,24,0.001,0.018,0.017,0.4,0.002,0.023,14,20.6,86.4,ENE,0.8
H03,2019,10,8,1,0.001,0.014,0.018,0.3,0.001,0.018,13,20.6,84.1,E,0.4
H03,2019,10,8,2,0.001,0.014,0.017,0.3,0.001,0.018,12,20.6,83.5,CALM,0.2
H03,2019,10,8,3,0.001,0.015,0.014,0.3,0.001,0.021,12,20.7,83.1,CALM,0.1
H03,2019,10,8,4,0.001,0.016,0.01,0.3,0.004,0.026,13,20.7,83.1,CALM,0.2
H03,2019,10,8,5,0.001,0.017,0.009,0.3,0.013,0.029,12,21,80.9,WNW,0.7
H03,2019,10,8,6,0.002,0.015,0.012,0.3,0.005,0.026,13,20.9,82.2,ENE,0.5
H03,2019,10,8,7,0.001,0.018,0.009,0.3,0.005,0.024,12,21.2,81.4,NE,1.3
H03,2019,10,8,8,0.001,0.018,0.009,0.3,0.013,0.025,12,21.8,79.3,ENE,0.7
H03,2019,10,8,9,0.002,0.018,0.013,0.3,0.012,0.02,13,22.5,72.9,E,0.4
H03,2019,10,8,10,0.002,0.022,0.015,0.4,0.014,0.026,18,23.4,69.8,SSE,0.7
H03,2019,10,8,11,0.004,0.023,0.017,0.4,0.029,0.034,17,23.9,72.1,SW,1.1
H03,2019,10,8,12,0.012,0.035,0.011,0.6,0.078,0.048,22,24.3,69.8,WNW,1
H03,2019,10,8,13,0.01,0.028,0.018,0.4,0.037,0.035,21,23.6,70.7,WNW,1.4
H03,2019,10,8,14,0.002,0.014,0.023,0.3,0.019,0.026,10,22.7,76.5,NNW,1.2
H03,2019,10,8,15,0.002,0.013,0.016,0.3,0.025,0.032,10,22.8,75.2,WNW,1.7
H03,2019,10,8,16,0.001,0.004,0.029,0.2,0.014,0.017,5,23,67.1,WNW,2.7
H03,2019,10,8,17,0.001,0.004,0.03,0.2,0.01,0.018,4,22.8,67.6,WNW,2.7
H03,2019,10,8,18,0.001,0.007,0.034,0.2,0.007,0.014,4,22.5,66.1,WNW,4.3
H03,2019,10,8,19,0.001,0.005,0.039,0.2,0.003,0.009,5,22.2,65.5,WNW,3.6
H03,2019,10,8,20,0.001,0.006,0.04,0.2,0.002,0.007,5,21.9,63.6,WNW,3.3
H03,2019,10,8,21,0.001,0.005,0.04,0.2,0.001,0.007,6,21.5,65.5,NW,1.2
H03,2019,10,8,22,0.001,0.006,0.036,0.2,0.001,0.01,7,20.9,67,NNE,1.4
H03,2019,10,8,23,0.001,0.005,0.04,0.2,0.001,0.008,7,20.7,57.2,WNW,2.9
H03,2019,10,8,24,0.001,0.007,0.043,0.2,0.001,0.006,5,19.8,58.7,WNW,3.1
H03,2019,10,9,1,�Z����,0.009,0.044,�Z����,�Z����,�Z����,6,19.7,58.7,WNW,3.2
H03,2019,10,9,2,0.001,0.011,0.044,0.2,0.001,0.008,8,19.2,60.4,WNW,2.2
H03,2019,10,9,3,0.001,0.012,0.045,0.2,0.001,0.008,11,18.9,62.8,WNW,3.3
H03,2019,10,9,4,0.002,0.012,0.04,0.2,0.003,0.009,11,18.5,63.5,WNW,2.3
H03,2019,10,9,5,0.001,0.012,0.04,0.2,0.002,0.009,9,18.1,58.8,WNW,4
H03,2019,10,9,6,0.001,0.013,0.034,0.2,0.006,0.012,10,17.7,60.9,WNW,3
H03,2019,10,9,7,0.001,0.015,0.029,0.2,0.024,0.016,11,18,59.3,WNW,1.7
H03,2019,10,9,8,0.001,0.014,0.031,0.2,0.017,0.012,8,19.2,44.8,WNW,2.6
H03,2019,10,9,9,0.001,0.011,0.033,0.2,0.014,0.016,10,21.1,37.1,NNE,2.2
H03,2019,10,9,10,0.001,0.014,0.031,0.2,0.019,0.017,9,22.4,30.1,NW,2.1
H03,2019,10,9,11,0.001,0.009,0.034,0.2,0.02,0.021,5,23,26.8,WNW,3.1
H03,2019,10,9,12,0.001,0.009,0.036,0.2,0.018,0.017,4,23.8,25.2,WNW,2.6
H03,2019,10,9,13,0.001,0.008,0.041,0.2,0.012,0.011,5,24.8,22.7,WNW,2.2
H03,2019,10,9,14,0.001,0.007,0.038,0.2,0.024,0.021,5,25.2,22.1,NNW,1.5
H03,2019,10,9,15,0.001,0.011,0.037,0.2,0.027,0.037,7,25.8,22.1,WNW,1.3
H03,2019,10,9,16,0.001,0.009,0.044,0.2,0.01,0.018,8,24.9,25.6,NNE,0.5
H03,2019,10,9,17,0.002,0.009,0.038,0.2,0.012,0.024,7,24.8,26.3,WNW,1.5
H03,2019,10,9,18,0.002,0.014,0.025,0.3,0.016,0.033,13,23.3,35.8,WNW,1.4
H03,2019,10,9,19,0.003,0.018,0.016,0.3,0.014,0.035,13,21.6,46.1,WNW,0.8
H03,2019,10,9,20,0.002,0.019,0.01,0.3,0.008,0.036,14,21.5,45.5,NNE,1.4
H03,2019,10,9,21,0.002,0.017,0.021,0.3,0.002,0.025,12,20.9,46.8,NNE,0.9
H03,2019,10,9,22,0.002,0.02,0.026,0.3,0.001,0.017,15,20,51.4,NE,1.3
H03,2019,10,9,23,0.001,0.019,0.017,0.3,0.002,0.023,14,20.1,52.6,NNE,1.1
H03,2019,10,9,24,0.002,0.013,0.012,0.3,0.004,0.026,11,18.9,59.4,WNW,0.5
H03,2019,10,10,1,0.002,0.015,0.008,0.3,0.004,0.027,12,18.6,62.9,NW,0.4
H03,2019,10,10,2,0.002,0.013,0.008,0.2,0.004,0.024,12,18,65,W,0.3
H03,2019,10,10,3,0.001,0.012,0.006,0.2,0.01,0.025,10,18,66.6,WNW,0.7
H03,2019,10,10,4,0.002,0.014,0.006,0.2,0.012,0.025,11,17.4,66.8,WNW,0.5
H03,2019,10,10,5,0.002,0.014,0.006,0.2,0.018,0.024,11,17,67.4,WNW,0.6
H03,2019,10,10,6,0.002,0.011,0.004,0.2,0.022,0.029,10,16.8,68.7,WNW,0.6
H03,2019,10,10,7,0.002,0.015,0.006,0.3,0.045,0.03,12,17.7,64.6,NW,0.4
H03,2019,10,10,8,0.002,0.019,0.01,0.3,0.047,0.033,14,20.6,49,WNW,1.4
H03,2019,10,10,9,0.002,0.017,0.014,0.3,0.048,0.029,14,22.6,43.3,NW,1.2
H03,2019,10,10,10,0.002,0.015,0.019,0.3,0.044,0.031,12,���̑��̌���,���̑��̌���,���̑��̌���,���̑��̌���
H03,2019,10,10,11,0.002,0.018,0.027,0.3,0.038,0.038,19,���̑��̌���,���̑��̌���,���̑��̌���,���̑��̌���
H03,2019,10,10,12,0.002,0.019,0.04,0.3,0.017,0.028,16,���̑��̌���,���̑��̌���,���̑��̌���,���̑��̌���
H03,2019,10,10,13,0.003,0.022,0.048,0.3,0.02,0.029,18,���̑��̌���,���̑��̌���,���̑��̌���,���̑��̌���
H03,2019,10,10,14,0.003,0.022,0.057,0.3,0.012,0.022,14,���̑��̌���,���̑��̌���,���̑��̌���,���̑��̌���
H03,2019,10,10,15,0.012,0.034,0.029,1.2,0.05,0.072,25,���̑��̌���,���̑��̌���,���̑��̌���,���̑��̌���
H03,2019,10,10,16,0.016,0.038,0.031,1.2,0.031,0.069,27,���̑��̌���,���̑��̌���,���̑��̌���,���̑��̌���
H03,2019,10,10,17,0.011,0.029,0.031,0.9,0.032,0.07,24,���̑��̌���,���̑��̌���,���̑��̌���,���̑��̌���
H03,2019,10,10,18,0.007,0.03,0.035,0.9,0.021,0.053,19,���̑��̌���,���̑��̌���,���̑��̌���,���̑��̌���
H03,2019,10,10,19,0.011,0.033,0.022,0.8,0.02,0.059,20,���̑��̌���,���̑��̌���,���̑��̌���,���̑��̌���
H03,2019,10,10,20,0.003,0.027,0.032,0.5,0.006,0.039,20,���̑��̌���,���̑��̌���,���̑��̌���,���̑��̌���
H03,2019,10,10,21,0.004,0.029,0.031,0.4,0.003,0.034,20,���̑��̌���,���̑��̌���,���̑��̌���,���̑��̌���
H03,2019,10,10,22,0.005,0.028,0.026,0.4,0.003,0.039,20,���̑��̌���,���̑��̌���,���̑��̌���,���̑��̌���
H03,2019,10,10,23,0.002,0.029,0.018,0.4,0.01,0.045,21,���̑��̌���,���̑��̌���,���̑��̌���,���̑��̌���
H03,2019,10,10,24,0.002,0.036,0.013,0.4,0.02,0.052,25,���̑��̌���,���̑��̌���,���̑��̌���,���̑��̌���
H03,2019,10,11,1,0.003,0.036,0.012,0.5,0.021,0.044,23,���̑��̌���,���̑��̌���,���̑��̌���,���̑��̌���
H03,2019,10,11,2,0.004,0.036,0.011,0.4,0.01,0.045,25,���̑��̌���,���̑��̌���,���̑��̌���,���̑��̌���
H03,2019,10,11,3,0.003,0.039,0.012,0.5,0.007,0.04,27,���̑��̌���,���̑��̌���,���̑��̌���,���̑��̌���
H03,2019,10,11,4,0.004,0.038,0.011,0.5,0.088,0.063,26,���̑��̌���,���̑��̌���,���̑��̌���,���̑��̌���
H03,2019,10,11,5,0.004,0.033,0.01,0.5,0.097,0.056,22,���̑��̌���,���̑��̌���,���̑��̌���,���̑��̌���
H03,2019,10,11,6,0.004,0.026,0.008,0.4,0.05,0.044,21,���̑��̌���,���̑��̌���,���̑��̌���,���̑��̌���
H03,2019,10,11,7,0.003,0.028,0.009,0.4,0.053,0.049,20,���̑��̌���,���̑��̌���,���̑��̌���,���̑��̌���
H03,2019,10,11,8,0.003,0.029,0.01,0.4,0.048,0.036,20,���̑��̌���,���̑��̌���,���̑��̌���,���̑��̌���
H03,2019,10,11,9,0.003,0.024,0.015,0.3,0.02,0.029,18,���̑��̌���,���̑��̌���,���̑��̌���,���̑��̌���
H03,2019,10,11,10,0.003,0.025,0.019,0.3,0.027,0.033,20,���̑��̌���,���̑��̌���,���̑��̌���,���̑��̌���
H03,2019,10,11,11,0.002,0.024,0.022,0.3,0.036,0.039,15,���̑��̌���,���̑��̌���,���̑��̌���,���̑��̌���
H03,2019,10,11,12,0.002,0.022,0.028,0.3,0.025,0.035,14,���̑��̌���,���̑��̌���,���̑��̌���,���̑��̌���
H03,2019,10,11,13,0.002,0.014,0.027,0.3,0.047,0.03,13,���̑��̌���,���̑��̌���,���̑��̌���,���̑��̌���
H03,2019,10,11,14,0.002,0.02,0.028,0.3,0.033,0.041,13,���̑��̌���,���̑��̌���,���̑��̌���,���̑��̌���
H03,2019,10,11,15,0.002,0.023,0.043,0.3,0.01,0.036,18,���̑��̌���,���̑��̌���,���̑��̌���,���̑��̌���
H03,2019,10,11,16,0.001,0.018,0.039,0.2,0.004,0.023,13,���̑��̌���,���̑��̌���,���̑��̌���,���̑��̌���
H03,2019,10,11,17,0.001,0.017,0.022,0.3,0.01,0.031,12,���̑��̌���,���̑��̌���,���̑��̌���,���̑��̌���
H03,2019,10,11,18,0.001,0.022,0.014,0.3,0.01,0.036,14,���̑��̌���,���̑��̌���,���̑��̌���,���̑��̌���
H03,2019,10,11,19,0.001,0.016,0.013,0.3,0.007,0.029,10,���̑��̌���,���̑��̌���,���̑��̌���,���̑��̌���
H03,2019,10,11,20,0.001,0.028,0.008,0.5,0.015,0.044,15,���̑��̌���,���̑��̌���,���̑��̌���,���̑��̌���
H03,2019,10,11,21,0.002,0.024,0.011,0.4,0.002,0.027,12,���̑��̌���,���̑��̌���,���̑��̌���,���̑��̌���
H03,2019,10,11,22,0.001,0.031,0.014,0.3,0.001,0.02,16,���̑��̌���,���̑��̌���,���̑��̌���,���̑��̌���
H03,2019,10,11,23,0.001,0.019,0.012,0.3,0.003,0.017,11,���̑��̌���,���̑��̌���,���̑��̌���,���̑��̌���
H03,2019,10,11,24,0.001,0.018,0.015,0.2,0.001,0.012,9,���̑��̌���,���̑��̌���,���̑��̌���,���̑��̌���
H03,2019,10,12,1,0.001,0.027,0.01,0.2,0.002,0.013,12,���̑��̌���,���̑��̌���,���̑��̌���,���̑��̌���
H03,2019,10,12,2,0.001,0.018,0.01,0.2,0.002,0.012,11,���̑��̌���,���̑��̌���,���̑��̌���,���̑��̌���
H03,2019,10,12,3,0.001,0.015,0.01,0.2,0.002,0.011,10,���̑��̌���,���̑��̌���,���̑��̌���,���̑��̌���
H03,2019,10,12,4,0.001,0.01,0.01,0.2,0.002,0.01,7,���̑��̌���,���̑��̌���,���̑��̌���,���̑��̌���
H03,2019,10,12,5,0.001,0.01,0.012,0.2,0.002,0.008,7,���̑��̌���,���̑��̌���,���̑��̌���,���̑��̌���
H03,2019,10,12,6,0.001,0.013,0.011,0.2,0.002,0.01,7,���̑��̌���,���̑��̌���,���̑��̌���,���̑��̌���
H03,2019,10,12,7,0.001,0.009,0.012,0.2,0.002,0.01,4,���̑��̌���,���̑��̌���,���̑��̌���,���̑��̌���
H03,2019,10,12,8,0.001,0.005,0.014,0.1,0.002,0.008,4,���̑��̌���,���̑��̌���,���̑��̌���,���̑��̌���
H03,2019,10,12,9,0.001,0.008,0.015,0.1,0.003,0.008,4,���̑��̌���,���̑��̌���,���̑��̌���,���̑��̌���
H03,2019,10,12,10,0.001,0.009,0.015,0.2,0.002,0.008,5,���̑��̌���,���̑��̌���,���̑��̌���,���̑��̌���
H03,2019,10,12,11,0.001,0.006,0.016,0.2,0.002,0.008,2,���̑��̌���,���̑��̌���,���̑��̌���,���̑��̌���
H03,2019,10,12,12,0.001,0.006,0.018,0.1,0.002,0.006,4,���̑��̌���,���̑��̌���,���̑��̌���,���̑��̌���
H03,2019,10,12,13,0.001,0.005,0.02,0.1,0.001,0.005,3,���̑��̌���,���̑��̌���,���̑��̌���,���̑��̌���
H03,2019,10,12,14,0.001,0.005,0.022,0.1,0.001,0.005,3,���̑��̌���,���̑��̌���,���̑��̌���,���̑��̌���
H03,2019,10,12,15,0.001,0.003,0.025,0.1,0.001,0.004,3,���̑��̌���,���̑��̌���,���̑��̌���,���̑��̌���
H03,2019,10,12,16,0.001,0.001,0.028,0.1,0.001,0.003,1,���̑��̌���,���̑��̌���,���̑��̌���,���̑��̌���
H03,2019,10,12,17,0.001,0.003,0.031,0.1,0,0.003,2,���̑��̌���,���̑��̌���,���̑��̌���,���̑��̌���
H03,2019,10,12,18,0.001,0.003,0.032,0.1,0,0.003,1,���̑��̌���,���̑��̌���,���̑��̌���,���̑��̌���
H03,2019,10,12,19,0.001,0.002,0.033,0.1,0,0.003,1,���̑��̌���,���̑��̌���,���̑��̌���,���̑��̌���
H03,2019,10,12,20,0.001,0.004,0.033,0.1,0,0.002,2,���̑��̌���,���̑��̌���,���̑��̌���,���̑��̌���
H03,2019,10,12,21,0.001,0.007,0.03,0.3,0.001,0.004,3,���̑��̌���,���̑��̌���,���̑��̌���,���̑��̌���
H03,2019,10,12,22,0.001,0.007,0.036,0.2,0.001,0.003,4,���̑��̌���,���̑��̌���,���̑��̌���,���̑��̌���
H03,2019,10,12,23,0,0.003,0.04,0.1,0,0.002,2,���̑��̌���,���̑��̌���,���̑��̌���,���̑��̌���
H03,2019,10,12,24,0.001,0.006,0.039,0.1,0,0.002,2,���̑��̌���,���̑��̌���,���̑��̌���,���̑��̌���
H03,2019,10,13,1,0.001,0.006,0.038,0.1,0.001,0.002,1,���̑��̌���,���̑��̌���,���̑��̌���,���̑��̌���
H03,2019,10,13,2,0.001,0.005,0.039,0.1,0,0.002,3,���̑��̌���,���̑��̌���,���̑��̌���,���̑��̌���
H03,2019,10,13,3,0.001,0.004,0.041,0.1,0,0.002,2,���̑��̌���,���̑��̌���,���̑��̌���,���̑��̌���
H03,2019,10,13,4,0.001,0.002,0.042,0.1,0,0.002,2,���̑��̌���,���̑��̌���,���̑��̌���,���̑��̌���
H03,2019,10,13,5,0.001,0.001,0.039,0.1,0,0.002,3,���̑��̌���,���̑��̌���,���̑��̌���,���̑��̌���
H03,2019,10,13,6,0.001,0.003,0.036,0.1,0,0.002,3,���̑��̌���,���̑��̌���,���̑��̌���,���̑��̌���
H03,2019,10,13,7,0.001,0.001,0.035,0.1,0.001,0.004,1,���̑��̌���,���̑��̌���,���̑��̌���,���̑��̌���
H03,2019,10,13,8,0.001,0.004,0.034,0.2,0.002,0.003,3,���̑��̌���,���̑��̌���,���̑��̌���,���̑��̌���
H03,2019,10,13,9,0.001,0,0.035,0.2,0.002,0.003,1,���̑��̌���,���̑��̌���,���̑��̌���,���̑��̌���
H03,2019,10,13,10,0.001,0.003,0.037,0.1,0.002,0.002,4,���̑��̌���,���̑��̌���,���̑��̌���,���̑��̌���
H03,2019,10,13,11,0.001,0.004,0.038,0.2,0.002,0.002,3,���̑��̌���,���̑��̌���,���̑��̌���,���̑��̌���
H03,2019,10,13,12,0.001,0.003,0.039,0.2,0.001,0.002,4,���̑��̌���,���̑��̌���,���̑��̌���,���̑��̌���
H03,2019,10,13,13,0.001,0.005,0.039,0.1,0.001,0.002,2,���̑��̌���,���̑��̌���,���̑��̌���,���̑��̌���
H03,2019,10,13,14,0,0.007,0.039,0.1,0.001,0.002,4,���̑��̌���,���̑��̌���,���̑��̌���,���̑��̌���
H03,2019,10,13,15,0.001,0.011,0.038,0.2,0.002,0.002,4,���̑��̌���,���̑��̌���,���̑��̌���,���̑��̌���
H03,2019,10,13,16,0.001,0.011,0.038,0.2,0.001,0.003,6,���̑��̌���,���̑��̌���,���̑��̌���,���̑��̌���
H03,2019,10,13,17,0.001,0.011,0.036,0.2,0.001,0.004,9,���̑��̌���,���̑��̌���,���̑��̌���,���̑��̌���
H03,2019,10,13,18,0.001,0.016,0.031,0.3,0.002,0.006,12,���̑��̌���,���̑��̌���,���̑��̌���,���̑��̌���
H03,2019,10,13,19,0.001,0.018,0.03,0.3,0.002,0.006,8,���̑��̌���,���̑��̌���,���̑��̌���,���̑��̌���
H03,2019,10,13,20,0.001,0.017,0.027,0.2,0.001,0.008,7,���̑��̌���,���̑��̌���,���̑��̌���,���̑��̌���
H03,2019,10,13,21,0.001,0.012,0.03,0.2,0,0.006,7,���̑��̌���,���̑��̌���,���̑��̌���,���̑��̌���
H03,2019,10,13,22,0.002,0.01,0.03,0.2,0,0.006,7,���̑��̌���,���̑��̌���,���̑��̌���,���̑��̌���
H03,2019,10,13,23,0.001,0.011,0.029,0.2,0.001,0.006,7,���̑��̌���,���̑��̌���,���̑��̌���,���̑��̌���
H03,2019,10,13,24,0.001,0.012,0.026,0.2,0.001,0.008,8,���̑��̌���,���̑��̌���,���̑��̌���,���̑��̌���
H03,2019,10,14,1,0.001,0.012,0.025,0.1,0.001,0.007,4,���̑��̌���,���̑��̌���,���̑��̌���,���̑��̌���
H03,2019,10,14,2,0.001,0.011,0.024,0.2,0.001,0.007,6,���̑��̌���,���̑��̌���,���̑��̌���,���̑��̌���
H03,2019,10,14,3,0.001,0.013,0.021,0.2,0.001,0.01,7,���̑��̌���,���̑��̌���,���̑��̌���,���̑��̌���
H03,2019,10,14,4,0.002,0.009,0.017,0.2,0.004,0.012,6,���̑��̌���,���̑��̌���,���̑��̌���,���̑��̌���
H03,2019,10,14,5,0.001,0.009,0.017,0.2,0.002,0.011,5,���̑��̌���,���̑��̌���,���̑��̌���,���̑��̌���
H03,2019,10,14,6,0.001,0.009,0.011,0.2,0.006,0.016,8,���̑��̌���,���̑��̌���,���̑��̌���,���̑��̌���
H03,2019,10,14,7,0.001,0.011,0.007,0.2,0.028,0.023,8,���̑��̌���,���̑��̌���,���̑��̌���,���̑��̌���
H03,2019,10,14,8,0.002,0.016,0.009,0.2,0.028,0.023,8,���̑��̌���,���̑��̌���,���̑��̌���,���̑��̌���
H03,2019,10,14,9,0.001,0.012,0.01,0.2,0.022,0.022,10,���̑��̌���,���̑��̌���,���̑��̌���,���̑��̌���